Lapse_Rate
8.5 8.9 9.0 9.1 9.3 8.7 6.9 6.8 6.0 5.3 6.0 5.7 5.4 5.5 5.1 5.4 5.7 5.6 8.3 7.5 8.6 8.2 7.3 7.6 7.9 8.1 9.5 9.5 9.6 9.6 9.4 9.4 9.6 9.3 9.3 9.5 9.7 9.6 9.8 9.7 9.7 9.7 9.7
8.3 8.6 8.8 9.0 9.0 8.9 7.5 6.2 6.2 5.7 6.2 6.4 6.9 6.3 5.7 5.6 5.8 5.0 6.8 8.2 8.2 7.6 7.7 8.1 8.2 7.8 9.4 9.6 9.5 9.4 9.3 9.4 9.6 9.0 8.9 8.3 8.9 9.4 9.2 9.8 9.8 9.7 9.7
8.0 8.3 8.6 8.8 8.9 8.9 8.2 5.9 5.9 6.1 6.5 6.7 7.2 6.7 6.7 6.2 6.0 5.9 6.4 7.3 7.4 9.0 8.1 8.2 9.2 7.8 9.2 9.6 9.3 9.4 9.3 9.0 9.4 9.1 8.8 8.1 7.8 8.4 9.2 7.9 9.5 9.3 9.3
8.2 8.4 8.6 8.8 8.9 9.0 8.9 7.2 6.4 6.3 7.0 6.1 6.2 6.2 6.3 6.7 6.7 6.8 6.9 9.1 7.6 7.3 7.5 9.4 9.7 9.5 9.5 9.5 9.4 9.7 9.4 9.2 8.9 9.2 8.3 8.6 8.7 7.5 6.2 8.7 8.4 9.4 9.4
8.1 8.3 8.5 8.8 9.1 9.1 9.0 8.8 6.1 6.2 6.3 6.7 6.0 6.5 7.3 7.3 6.8 6.5 6.6 8.6 8.4 5.9 8.3 9.6 9.8 9.7 9.8 9.5 9.4 9.3 8.9 9.3 8.8 8.8 9.1 9.1 9.2 8.9 8.4 7.7 8.2 8.7 9.5
8.1 8.4 8.7 8.9 9.0 9.2 9.1 8.4 7.3 5.9 5.7 6.6 6.5 6.7 6.5 6.5 6.5 6.5 5.8 8.5 8.9 8.1 7.7 9.7 9.4 9.0 9.0 8.9 9.0 8.5 8.7 8.5 9.0 7.4 8.8 8.7 8.7 8.6 8.3 8.0 8.5 7.6 7.7
8.0 8.2 8.5 8.7 8.8 8.9 9.0 9.1 8.4 7.7 5.9 5.7 5.8 6.8 7.7 6.3 7.2 7.2 6.7 6.5 7.2 7.6 7.8 8.4 8.9 8.8 8.2 7.5 7.1 7.0 7.9 8.0 8.0 7.8 8.0 8.2 8.4 9.5 9.3 8.3 8.5 8.4 7.6
8.0 8.2 8.5 8.6 8.8 8.8 9.0 9.0 9.1 9.1 7.5 6.6 6.3 7.4 8.1 7.6 9.0 8.3 8.5 7.6 5.9 6.3 6.3 8.3 9.0 8.4 8.4 8.0 7.7 7.4 8.2 7.4 7.2 7.7 8.3 8.3 8.3 9.4 9.3 8.8 8.5 7.9 7.7
7.9 8.1 8.5 8.6 8.7 8.8 8.8 8.9 9.1 9.2 9.1 7.0 6.8 6.5 6.7 7.6 9.0 9.3 9.2 9.2 8.4 8.1 7.0 7.5 7.8 7.9 7.9 7.7 7.8 8.1 8.4 8.5 8.4 7.8 8.1 8.1 8.9 9.5 9.3 9.0 8.9 7.7 7.2
7.9 8.1 8.4 8.5 8.8 8.9 9.0 9.0 9.2 9.1 9.2 9.3 7.8 7.4 6.9 7.2 8.7 9.1 9.5 9.2 9.2 8.8 9.0 7.4 7.7 7.6 7.7 7.9 8.2 8.1 8.2 8.5 8.6 8.9 8.7 8.7 9.1 8.7 8.7 7.7 7.2 6.1 6.0
7.8 8.0 8.3 8.6 8.8 9.0 9.0 9.0 9.1 9.1 9.1 9.4 9.4 8.9 8.6 8.2 8.3 8.7 9.4 9.8 9.8 9.8 9.8 9.6 9.0 9.0 9.1 9.1 9.2 8.8 8.7 8.8 8.8 8.8 9.1 9.0 8.9 8.2 7.1 5.7 5.0 4.8 5.4
7.9 8.1 8.3 8.5 8.7 8.8 9.0 8.9 9.0 9.0 9.1 9.3 9.5 9.2 9.3 9.1 8.8 8.7 9.1 9.3 9.7 9.9 10.0 9.8 9.8 9.8 9.7 9.8 9.6 9.3 9.6 9.2 9.0 9.0 8.8 8.6 7.8 7.8 6.6 5.9 4.3 4.0 3.6
8.0 8.2 8.2 8.3 8.6 8.7 8.8 9.0 9.0 8.9 9.1 9.3 9.3 9.4 9.3 9.5 9.2 8.9 9.2 9.6 9.4 9.7 9.8 10.0 9.9 9.9 9.8 9.9 9.8 9.6 9.5 9.4 9.2 9.0 8.8 8.7 7.8 7.2 6.3 4.3 3.3 3.4 2.2
7.9 8.1 8.2 8.3 8.5 8.7 8.8 8.9 8.9 9.2 9.1 9.2 9.3 9.2 8.6 7.9 8.2 8.8 9.1 9.0 9.4 9.4 9.5 9.6 9.8 9.7 10.0 10.1 10.1 10.0 9.7 9.5 8.9 8.6 8.0 7.4 8.0 5.5 5.1 4.8 3.7 2.7 1.7
7.8 8.0 8.1 8.3 8.5 8.5 8.7 8.9 8.9 9.2 9.2 9.4 9.3 9.2 8.0 8.2 9.1 9.3 9.4 9.4 9.4 9.4 9.5 9.5 9.6 9.5 9.7 9.8 9.5 9.7 9.3 8.2 7.5 7.8 8.9 8.6 7.5 4.1 4.9 4.6 3.6 2.0 1.2
7.8 8.1 8.3 8.4 8.4 8.4 8.6 8.7 8.8 9.1 9.2 9.1 9.6 9.6 9.5 9.2 9.2 9.3 9.3 9.3 9.2 9.6 9.7 9.3 9.5 9.4 9.8 6.2 2.4 6.1 9.0 8.2 7.1 7.0 7.8 7.9 2.9 0.9 -0.2 -0.3 0.0 1.9 1.2
7.9 8.1 8.4 8.5 8.5 8.6 8.6 8.6 8.9 9.0 9.1 9.3 9.4 9.4 9.6 9.5 9.4 9.5 9.5 9.6 9.2 9.5 9.5 9.3 9.4 9.2 9.6 2.7 0.2 0.5 8.3 8.6 8.1 7.5 7.0 2.6 0.5 -0.2 -0.8 -2.9 -3.8 -3.2 -2.8
8.1 8.3 8.5 8.7 8.8 8.9 8.9 8.9 9.2 9.0 8.9 8.9 9.1 9.5 9.5 9.5 9.6 9.6 9.6 9.3 9.4 9.2 9.2 9.4 9.4 9.2 9.1 1.2 -0.3 -0.3 6.3 7.0 5.3 4.4 2.8 0.4 -1.7 -1.9 -1.8 -2.0 -1.9 -1.5 -1.8
8.4 8.6 8.8 8.7 8.8 8.9 9.0 9.0 8.9 9.0 9.0 8.8 9.1 9.3 9.3 9.4 9.4 9.3 9.1 9.1 9.2 9.0 8.9 8.9 8.7 7.3 5.2 -0.3 -0.8 -0.3 -0.5 -1.7 -2.3 -2.1 -1.6 -1.9 -2.7 -2.6 -2.2 -1.7 -1.6 -1.4 -1.6
8.7 8.7 8.8 8.8 8.8 8.9 9.0 8.7 8.8 8.8 8.7 9.0 9.1 9.2 9.3 9.3 9.3 9.0 8.9 8.9 8.8 7.1 1.1 -1.6 -2.0 -3.0 -2.2 -1.1 -1.2 -1.1 -2.7 -3.7 -4.4 -4.3 -3.5 -3.0 -2.4 -2.3 -1.4 -0.8 -0.4 -0.6 -0.5
8.8 8.8 8.8 8.7 8.6 7.3 8.3 8.6 8.8 8.6 8.9 9.0 9.1 9.0 9.3 9.0 9.0 9.1 8.7 3.2 0.4 -1.9 -3.2 -3.9 -4.3 -4.2 -3.9 -3.6 -2.9 -3.0 -3.3 -3.6 -3.7 -2.8 -2.0 -0.9 0.1 0.1 0.4 0.8 0.9 1.2 1.2
8.8 8.9 8.6 8.3 4.7 3.2 3.6 5.4 8.3 7.8 6.3 6.1 6.0 2.5 2.2 1.7 1.1 -0.5 -1.8 -1.9 -2.6 -3.8 -4.3 -4.3 -4.4 -4.6 -4.0 -4.5 -2.8 -1.7 -1.7 -1.9 -1.8 -1.4 -0.1 0.7 1.0 1.0 1.1 1.4 1.6 1.9 2.9
8.8 8.8 8.6 6.2 2.2 1.3 2.5 3.3 3.6 4.5 4.4 4.2 0.7 -1.6 -2.3 -1.8 -1.8 -2.1 -2.6 -3.2 -3.2 -3.6 -3.5 -3.2 -3.8 -4.2 -3.0 -2.3 -2.6 -0.8 -0.8 -0.7 -0.5 0.2 0.6 1.4 1.6 1.3 0.7 0.9 2.1 3.4 4.4
8.7 8.4 6.5 4.9 1.4 -0.9 1.5 3.0 4.3 3.5 2.0 0.2 -0.6 -1.3 -2.0 -2.6 -2.6 -2.5 -2.2 -2.4 -2.6 -2.2 -2.0 -2.5 -2.5 -2.6 -1.0 -1.0 -1.3 -0.5 -0.3 0.3 0.1 0.7 1.2 1.0 0.9 0.8 1.2 2.3 3.2 4.0 5.2
7.7 8.0 4.5 7.0 1.8 -0.2 1.5 2.7 4.3 4.1 1.9 0.0 -0.5 -1.4 -1.8 -2.3 -2.3 -2.7 -1.4 -1.6 -1.0 -1.0 -1.0 -0.4 -0.2 -0.3 0.8 1.2 1.3 0.9 1.0 1.1 1.2 1.4 2.1 2.7 3.9 5.1 5.9 5.8 5.6 6.3 7.0
4.9 4.3 3.5 3.1 2.8 -0.1 1.8 3.0 3.2 3.8 3.2 1.9 2.2 1.5 0.0 0.6 1.4 1.1 1.4 1.4 0.5 0.2 -0.0 0.5 0.6 1.6 2.3 2.8 2.7 2.3 2.4 3.0 3.7 5.2 5.7 6.0 6.4 6.8 7.1 7.6 7.7 8.2 8.2
Wind_Speed
11 12 12 10 11 12 12 11 12 12 9 9 9 8 9 7 6 4 18 16 16 16 10 8 5 9 7 8 8 9 10 8 8 8 7 8 8 8 8 12 14 15 15
13 13 14 12 12 13 13 13 14 12 11 9 9 9 7 5 6 4 5 15 11 15 12 9 8 10 7 9 10 9 9 8 8 8 8 7 8 10 10 9 9 9 13
15 15 15 15 13 15 15 14 15 15 13 12 10 9 8 7 4 5 6 8 13 16 14 12 13 10 9 9 10 11 11 9 9 11 6 6 8 8 11 11 9 8 7
15 16 17 16 16 15 15 16 14 16 15 15 11 15 11 13 11 11 9 12 15 13 14 20 15 11 9 9 10 10 10 9 9 8 10 11 10 3 3 6 10 9 10
15 17 19 18 17 16 16 16 16 15 15 18 15 11 14 12 11 9 12 15 11 14 19 22 17 11 10 10 11 10 12 9 8 7 8 8 8 9 7 7 5 5 8
14 16 17 17 16 16 17 16 18 16 15 15 17 17 15 13 12 13 11 12 11 12 20 19 14 13 11 11 10 11 12 11 10 9 8 8 7 8 8 8 10 9 7
12 14 18 18 18 18 18 18 18 19 17 17 17 18 20 18 19 18 15 16 9 8 14 15 13 11 12 11 10 11 13 12 9 10 8 9 9 9 9 8 10 9 3
9 13 18 19 19 20 21 21 21 20 19 19 19 19 21 13 15 17 15 14 13 12 13 14 15 16 15 14 13 11 12 12 10 12 11 9 9 8 8 8 9 9 9
10 11 15 18 19 20 21 21 21 21 21 20 17 17 16 17 17 18 18 15 17 15 17 17 17 17 16 15 14 10 12 12 11 11 12 12 10 10 9 9 8 10 7
9 12 12 16 18 19 19 20 20 21 22 22 18 17 18 18 18 17 18 18 17 18 18 19 19 17 16 16 15 13 13 13 11 10 14 14 11 12 9 8 8 9 9
6 7 7 12 17 18 19 20 20 21 20 20 20 21 19 19 19 18 19 19 19 21 20 20 20 20 19 18 17 17 16 17 16 16 16 16 15 10 8 7 8 9 10
4 5 3 7 12 17 18 20 20 20 20 19 19 20 20 21 20 20 21 20 19 19 19 19 18 19 19 19 19 19 17 18 19 18 18 17 12 14 12 10 12 11 10
11 9 1 5 10 14 17 19 20 21 20 19 19 19 19 19 22 23 22 20 20 20 19 19 20 21 19 19 20 20 20 20 19 19 19 18 16 14 11 12 10 10 7
13 12 12 5 9 12 16 18 20 19 19 20 20 20 21 22 21 20 20 20 20 20 20 21 21 21 20 21 21 20 20 19 17 17 17 16 17 14 15 14 12 9 7
15 16 17 14 13 11 14 17 19 19 20 21 21 23 22 20 20 19 20 19 20 19 20 20 20 20 19 16 20 20 20 17 17 17 18 17 18 14 16 10 12 10 8
16 17 18 20 17 18 12 15 17 18 19 20 21 20 18 20 20 20 20 19 19 19 19 20 20 19 15 17 17 17 15 15 15 15 16 14 8 9 11 11 11 13 12
18 18 17 16 17 17 15 12 15 16 18 20 21 20 19 20 21 20 20 21 20 18 20 19 19 19 18 15 16 17 15 14 14 14 11 5 3 6 6 11 15 13 14
17 18 16 17 17 19 19 17 14 16 18 20 19 19 19 20 19 19 20 19 17 19 17 17 17 16 14 12 16 17 14 16 9 8 8 7 6 7 11 10 9 8 10
14 16 18 19 17 17 18 19 18 15 18 20 19 20 19 19 19 20 20 17 15 15 14 12 13 9 3 3 9 9 6 6 6 6 6 8 9 14 20 13 11 9 10
15 16 18 18 18 18 20 21 18 16 17 17 18 17 18 18 18 16 15 13 13 7 7 8 7 10 7 7 7 10 7 8 7 8 9 12 12 15 14 12 11 10 8
17 17 16 16 17 19 19 19 19 19 18 17 15 14 16 15 15 14 10 8 10 10 9 11 9 11 10 10 12 11 8 8 8 8 8 8 18 20 20 16 10 9 7
18 18 15 15 15 17 18 19 20 15 13 9 5 9 8 7 9 13 10 10 10 12 10 11 9 9 9 17 17 17 18 16 11 10 8 11 22 22 20 13 17 15 8
15 16 14 14 13 16 16 18 17 14 10 5 7 10 11 10 9 10 10 9 9 9 9 7 8 9 7 9 26 21 21 20 12 10 18 23 23 21 17 17 11 7 6
15 16 16 14 14 14 16 16 14 11 7 8 9 9 12 12 11 9 7 7 7 7 7 9 9 10 7 7 9 9 13 18 15 15 10 12 13 13 10 8 7 6 5
14 14 14 14 14 14 14 15 15 9 7 9 10 12 12 14 13 13 9 9 10 9 9 8 9 10 8 9 13 12 9 9 10 10 7 6 6 6 6 6 6 4 3
13 13 14 15 15 15 14 14 14 12 7 10 8 8 12 11 10 13 16 29 29 30 29 26 18 13 21 24 23 23 20 15 8 7 7 7 6 6 5 5 4 4 4
Wind_Direction
194 172 173 186 177 178 171 171 162 157 152 147 149 144 148 147 155 226 164 166 167 176 153 149 146 219 182 184 181 189 188 191 190 195 183 198 210 215 209 208 214 219 207
192 180 175 186 191 183 167 168 168 162 168 160 166 163 153 155 166 175 178 170 180 183 177 169 181 218 192 192 184 192 187 194 186 200 196 203 206 213 222 221 216 221 216
201 187 185 182 194 185 177 171 172 173 171 172 156 157 158 161 165 197 201 190 189 193 190 209 185 204 214 189 189 198 202 195 188 227 234 216 229 198 193 207 228 208 218
202 191 189 190 188 195 175 173 176 180 178 166 165 166 166 173 188 188 195 204 204 205 196 211 210 197 212 204 195 200 209 224 194 201 247 274 303 286 103 192 198 222 213
199 197 189 191 188 184 175 180 171 177 180 182 175 172 183 187 182 186 195 212 206 203 223 220 204 208 209 218 208 204 207 212 231 220 203 236 252 255 265 256 222 211 226
203 198 188 186 186 180 172 178 177 179 179 185 187 187 180 183 181 187 196 215 206 202 214 218 204 210 213 217 214 218 212 224 221 223 233 238 244 243 245 255 258 230 210
202 196 189 189 185 183 181 178 187 185 184 187 189 193 196 189 193 195 197 205 208 207 209 216 209 204 213 217 218 220 220 221 224 229 233 240 240 246 248 231 258 264 235
191 201 196 193 191 187 188 184 186 192 183 191 193 196 199 198 203 199 203 208 208 207 209 208 208 206 209 214 213 215 223 221 222 225 232 233 241 249 256 253 259 251 238
192 206 201 197 197 193 192 192 187 192 190 189 196 198 203 204 204 207 206 206 210 211 211 213 210 209 212 210 214 216 222 223 215 223 227 232 238 238 234 245 234 233 247
205 195 212 206 201 197 194 194 198 194 191 193 195 201 203 207 210 215 210 212 214 214 211 210 212 212 214 216 218 222 225 229 227 226 228 232 235 243 244 230 225 224 238
343 309 231 217 203 203 199 195 201 201 198 192 193 200 206 206 211 215 218 216 211 214 217 214 214 217 220 221 224 226 231 232 234 233 237 239 239 239 221 206 213 223 232
347 10 310 230 206 206 206 201 202 207 206 200 196 199 199 203 208 215 216 216 217 221 218 223 223 223 227 229 230 232 233 235 239 240 240 238 235 231 215 216 221 221 219
335 329 248 219 215 213 214 212 207 210 207 206 201 201 205 207 209 211 214 215 216 219 222 224 222 226 227 229 231 234 236 240 242 242 244 237 225 226 225 221 219 221 203
318 325 321 259 219 217 217 219 217 211 212 208 208 207 208 210 214 214 214 214 216 218 219 223 227 229 230 229 232 234 238 241 243 243 239 237 231 219 226 225 216 201 193
341 339 331 329 324 222 228 222 223 213 211 215 212 215 210 211 214 217 216 216 217 219 218 220 224 227 229 232 230 229 231 229 233 237 239 236 232 222 221 213 212 190 190
344 341 334 331 327 317 260 231 230 223 211 217 222 218 214 210 214 215 214 216 218 220 221 221 223 225 227 222 211 226 228 227 228 229 235 237 234 219 196 184 184 187 183
335 333 328 324 318 311 314 270 253 227 223 218 223 222 216 214 216 213 213 215 216 215 221 223 222 226 229 205 196 203 226 231 226 231 233 212 207 180 136 96 91 72 64
331 328 331 332 325 316 309 299 277 255 229 225 223 222 218 219 213 213 216 217 213 214 215 220 222 226 229 201 194 198 217 227 233 220 197 178 144 141 137 123 100 72 59
340 333 333 329 328 319 306 293 285 275 249 229 225 220 216 216 215 214 213 211 212 212 214 221 226 229 177 95 205 171 109 98 80 91 117 133 130 139 137 125 115 94 89
340 340 331 332 337 338 330 317 294 274 263 251 227 222 217 214 216 215 211 206 203 175 122 89 73 66 63 43 123 128 124 111 97 76 73 87 102 104 105 109 117 106 103
343 342 343 342 347 344 334 318 300 286 274 265 255 226 224 213 208 205 203 127 115 100 83 80 64 71 79 70 76 93 101 110 98 90 88 84 93 87 87 85 91 94 103
347 352 344 347 356 355 345 333 317 339 337 345 24 50 44 61 92 112 110 110 114 107 100 96 84 59 54 86 82 89 103 109 106 102 98 95 91 84 78 70 91 106 126
350 354 349 348 1 1 356 338 331 337 345 19 52 71 75 72 79 97 101 101 105 107 112 111 104 91 81 72 92 91 92 93 98 101 102 95 90 85 81 84 81 60 64
355 348 351 351 354 14 357 343 335 345 35 55 61 62 72 71 65 66 68 85 96 107 110 110 102 97 86 80 83 93 93 93 95 95 87 79 85 87 98 99 83 75 64
358 353 356 354 7 18 8 355 345 5 43 65 69 72 68 65 67 61 61 72 61 88 98 91 93 92 79 71 83 85 84 93 102 106 100 99 104 113 105 84 78 92 81
8 9 10 15 5 24 13 3 9 5 30 64 60 71 86 76 76 84 78 69 76 78 83 84 86 86 93 90 89 91 93 96 104 102 98 94 89 82 78 80 90 78 59